Flag for Brazil Weather past 2 weeks in Niterói, Rio de Janeiro, Brazil

Now
73 °F

Mostly cloudy.


Feels Like: 75 °F
Forecast: 69 / 74 °F
Wind: 7 mph from South

Location: Rio De Janeiro Airport

Current Time: Sep 17, 2014 at 3:07:40 PM

Latest Report: Sep 17, 2014 at 2:00 PM


Visibility: N/A

Pressure: 30.07 "Hg

Humidity: 74%

Dew point: 64 °F

Location of NiteróiLocation

Historic Weather in Niterói — Graph

°F

Niterói temperature yesterday

Maximum temperature yesterday: 86 °F (at 12:00 PM)
Minimum temperature yesterday: 72 °F (at 11:00 PM)
Average temperature yesterday: 77 °F

Past Weeks' High & Low Weather Summary

 TemperatureHumidityPressure
High91 °F (Sep 11, 2:00 PM)94% (Sep 3, 6:00 AM)30.33 "Hg (Sep 3, 6:00 AM)
Low64 °F (Sep 5, 6:00 AM)30% (Sep 15, 2:00 PM)29.80 "Hg (Sep 15, 3:00 PM)
Average74 °F70%30.05 "Hg
* Reported Sep 2 2:00 PM — Sep 17 2:00 PM, Niterói, Weather by CustomWeather, © 2014

Note: Actual official high and low records may vary slightly from our data, if they occured in-between our weather recording intervals... More about our weather records

Advertising

Niterói weather history for previous 24 hours

 ConditionsComfort  
Time TempWeatherWind HumidityBarometerVisibility
2:00 PM
Sep 17
73 °FMostly cloudy.7 mph74%30.07 "HgN/A
1:00 PM72 °FMostly cloudy.2 mph78%30.09 "HgN/A
12:00 PM73 °FMostly cloudy.3 mph78%30.12 "HgN/A
11:00 AM72 °FOvercast.5 mph83%30.15 "Hg6 mi
10:00 AM70 °FOvercast.3 mph88%30.15 "HgN/A
9:00 AM70 °FOvercast.6 mph88%30.15 "HgN/A
8:00 AM70 °FPartly sunny.3 mph83%30.12 "HgN/A
7:00 AM70 °FPartly sunny.2 mph83%30.09 "HgN/A
6:00 AM68 °FPartly sunny.No wind88%30.09 "Hg4 mi
11:00 PM
Sep 16
72 °FMostly cloudy.12 mph78%30.07 "HgN/A
10:00 PM73 °FOvercast.13 mph74%30.07 "HgN/A
9:00 PM73 °FOvercast.14 mph78%30.07 "HgN/A
8:00 PM73 °FOvercast.16 mph78%30.04 "HgN/A
7:00 PM73 °FMostly cloudy.15 mph78%30.01 "HgN/A
6:00 PM73 °FMostly cloudy.20 mph78%30.01 "HgN/A
5:00 PM75 °FPassing clouds.21 mph74%29.98 "HgN/A
4:00 PM77 °FPassing clouds.21 mph74%29.95 "HgN/A
3:00 PM79 °FPassing clouds.21 mph70%29.92 "HgN/A
Weather by CustomWeather, © 2014

See weather overviewHow to use our weather pages